Weather observations for the past three days for
Watertown, Watertown International Airport
Imperial (Metric)
Date Time (edt) Wind (mph) Vis. (mi.) Weather Sky Cond. Temperature (ºF) Relative Humidity Wind Chill (°F) Heat Index (°F) Pressure Precipitation (in)
Air Dwpt 6 hour altimeter (in) sea level (mb) 1 hr 3 hr 6 hr
Max. Min.
09 14:56 S 14 G 24 10.00 A Few Clouds FEW060 64 45 50% 29.7 1005.5
09 13:56 S 10 G 20 10.00 A Few Clouds FEW049 FEW065 63 42.1 64 53.1 47% 29.7 1005.7
09 12:56 S 9 G 21 10.00 Partly Cloudy SCT043 62.1 42.1 48% 29.73 1006.6
09 11:56 S 9 10.00 A Few Clouds FEW040 61 42.1 50% 29.75 1007.5
09 10:56 S 7 10.00 Fair CLR 60.1 42.1 52% 29.77 1008.0
09 09:56 SE 7 10.00 A Few Clouds FEW110 57.9 39.9 51% 29.77 1008.4
09 08:56 Vrbl 7 G 18 10.00 Fair CLR 57 36 45% 29.78 1008.6
09 07:56 SE 12 G 18 10.00 Fair CLR 53.1 28 53.1 37.9 38% 29.79 1008.9
09 06:56 SE 6 10.00 Fair CLR 48 28 46% 46 29.8 1009.1
09 05:56 SE 6 10.00 Fair CLR 43 26.1 51% 40 29.79 1009.0
09 04:56 SE 5 10.00 Fair CLR 42.1 27 55% 40 29.8 1009.4
09 03:56 SE 5 10.00 Fair CLR 39 27 62% 36 29.81 1009.8
09 02:56 SE 5 10.00 Fair CLR 43 25 49% 41 29.82 1009.8
09 01:56 S 6 10.00 Fair CLR 43 25 48 34 49% 40 29.83 1010.3
09 00:56 S 5 10.00 Fair CLR 41 26.1 55% 38 29.84 1010.7
08 23:56 S 3 10.00 Fair CLR 41 23 49% 29.85 1010.9
08 22:56 S 5 10.00 Fair CLR 42.1 27 55% 40 29.85 1011.1
08 21:56 Calm 10.00 Fair CLR 34 30.9 89% 29.86 1011.6
08 20:56 Calm 10.00 Fair CLR 39.9 30 68% 29.84 1010.8
08 19:56 Calm 10.00 Fair CLR 46.9 27 52 46.9 46% 29.84 1010.5
08 18:56 SW 8 10.00 Fair CLR 50 28.9 44% 47 29.84 1010.6
08 17:56 SW 9 10.00 Fair CLR 51.1 28 41% 29.84 1010.7
08 16:56 SW 14 G 23 10.00 Fair CLR 52 28.9 41% 29.84 1010.7
08 15:56 SW 13 G 23 10.00 Fair CLR 51.1 30 45% 29.86 1011.3
08 14:56 W 12 G 24 10.00 Fair CLR 51.1 33.1 50% 29.86 1011.3
08 13:56 SW 10 G 24 10.00 Partly Cloudy SCT095 51.1 32 52 44.1 48% 29.87 1011.5
08 12:56 W 13 G 23 10.00 Partly Cloudy SCT095 51.1 32 48% 29.87 1011.6
08 11:56 SW 12 10.00 Fair CLR 50 30.9 48% 46 29.87 1011.8
08 10:56 SW 12 10.00 Fair CLR 48.9 30 48% 45 29.87 1011.8
08 09:56 SW 10 10.00 Partly Cloudy SCT110 46.9 28 48% 43 29.86 1011.5
08 08:56 SW 8 10.00 Fair CLR 46 30 54% 42 29.86 1011.5
08 07:56 SW 7 10.00 Partly Cloudy SCT080 44.1 30.9 44.1 37 60% 41 29.87 1011.6
08 06:56 S 3 10.00 Partly Cloudy SCT090 39 33.1 79% 29.86 1011.4
08 05:56 SW 6 10.00 Overcast OVC090 37.9 30.9 76% 34 29.85 1010.9
08 04:56 W 5 10.00 Overcast OVC090 42.1 27 55% 40 29.84 1010.7
08 03:56 W 6 10.00 Overcast OVC095 42.1 28.9 60% 39 29.84 1010.5
08 02:56 W 8 10.00 Overcast OVC095 43 28 56% 39 29.83 1010.3
08 01:56 Vrbl 6 10.00 Overcast FEW065 OVC080 44.1 30.9 46 39 60% 41 29.83 1010.3
08 00:56 S 3 10.00 Overcast OVC095 39.9 33.1 77% 29.83 1010.2
07 23:56 S 5 10.00 Overcast OVC100 39.9 33.1 77% 37 29.83 1010.2
07 22:56 S 5 10.00 Fair CLR 39.9 33.1 77% 37 29.82 1010.1
07 21:56 S 5 10.00 Fair CLR 41 34 76% 38 29.82 1010.1
07 20:56 SW 5 10.00 Fair CLR 44.1 33.1 65% 42 29.81 1009.7
07 19:56 SW 10 10.00 Fair CLR 45 32 51.1 45 61% 40 29.81 1009.5
07 18:56 SW 12 G 20 10.00 Fair CLR 48 28.9 48% 44 29.8 1009.5
07 17:56 SW 14 G 20 10.00 Fair CLR 50 28.9 44% 45 29.81 1009.6
07 16:56 W 12 G 23 10.00 Fair CLR 50 30.9 48% 46 29.81 1009.7
07 15:56 SW 14 G 22 10.00 Fair CLR 51.1 30.9 46% 29.82 1010.0
07 14:56 W 14 G 24 10.00 Fair CLR 50 30.9 48% 45 29.84 1010.7
07 13:56 W 17 G 28 10.00 Fair CLR 50 32 50 43 50% 45 29.85 1010.9
07 12:56 SW 13 G 22 10.00 Fair CLR 48.9 30 48% 44 29.86 1011.1
07 11:56 SW 12 G 21 10.00 Fair CLR 48 28.9 48% 44 29.87 1011.5
07 10:56 SW 13 10.00 Fair CLR 46.9 30 52% 42 29.88 1011.8
07 09:56 SW 9 10.00 Mostly Cloudy BKN070 44.1 28 53% 40 29.88 1012.1
07 08:56 W 14 10.00 A Few Clouds FEW080 44.1 28.9 55% 38 29.88 1012.1
07 07:56 W 15 G 24 10.00 Partly Cloudy SCT080 43 28 44.1 37.9 56% 36 29.88 1012.0
07 06:56 W 10 G 18 10.00 Mostly Cloudy BKN080 42.1 30 62% 37 29.87 1011.6
07 05:56 W 8 10.00 Fair CLR 39 30 70% 34 29.85 1011.1
07 04:56 W 8 10.00 Fair CLR 39 28.9 67% 34 29.86 1011.2
07 03:56 W 9 10.00 Fair CLR 39.9 28.9 65% 34 29.85 1011.2
07 02:56 W 9 10.00 Fair CLR 39.9 30 68% 34 29.84 1010.8
07 01:56 W 10 G 18 10.00 Fair CLR 42.1 28 45 42.1 58% 37 29.85 1011.0
07 00:56 SW 13 G 20 10.00 Overcast BKN060 OVC070 43 37 80% 37 29.85 1010.9
06 23:56 SW 10 10.00 Overcast FEW011 SCT029 OVC040 43 39.9 89% 38 29.84 1010.8
06 22:56 SW 8 10.00 Overcast BKN016 OVC025 44.1 39 83% 40 29.85 1010.9
06 21:56 SW 9 10.00 Overcast FEW023 OVC080 44.1 39.9 85% 40 29.86 1011.2
06 20:56 W 8 10.00 Overcast FEW010 OVC080 44.1 39.9 85% 40 29.85 1011.0
06 19:56 SW 6 10.00 Mostly Cloudy SCT080 BKN110 45 41 48.9 45 86% 42 29.83 1010.2
06 18:56 SW 3 10.00 Mostly Cloudy BKN070 46.9 41 80% 29.81 1009.7
06 17:56 W 6 10.00 Overcast FEW022 OVC075 48 39.9 74% 46 29.81 1009.6
06 16:56 NW 3 10.00 Overcast OVC020 48 39.9 74% 29.8 1009.3
06 15:56 N 8 10.00 Overcast BKN016 OVC060 46.9 41 80% 44 29.8 1009.1
Date Time (edt) Wind (mph) Vis. (mi.) Weather Sky Cond. Air Dwpt Max. Min. Relative Humidity Wind Chill (°F) Heat Index (°F) altimeter (in) sea level (mb) 1 hr 3 hr 6 hr
6 hour
Temperature (ºF) Pressure Precipitation (in)